[[{"header":{"parameterUnit":"m.s-1","parameterCategory":1,"la1":30.2991,"la2":30.254,"lo1":-89.0895,"lo2":-89.0444,"dy":0.0017,"dx":0.0017,"nx":28,"ny":28,"refTime":"2024-03-22T09:00:00:Z","depth":0,"parameterNumber":2,"parameterNumberName":"U-component_of_WINDS"},"data":[0,0,0,0,0,0,0,0,0,0,0,0,0,0,0,0,0,0,0,0,0,0,0,0,0,0,0,0,0,0,0,0,0,0,0,0,0,0,0,0,0,0,0,0,0,0,0,0,0,0,0,0,0,0,0,0,0,0,2.0687,2.0688,0,2.0746,2.0747,2.0748,2.0748,2.0747,2.0747,2.0746,2.0804,2.0806,2.0808,0,0,0,0,0,0,0,0,0,0,0,0,0,2.0573,2.0575,2.0687,2.0688,2.0689,2.0746,2.0747,2.0748,2.0748,2.0747,2.0747,2.0746,2.0803,2.0806,2.0809,0,0,0,0,0,0,0,0,0,0,0,0,0,2.0627,2.0576,2.0687,2.0696,2.0697,2.0746,2.0747,2.0748,2.0749,2.0747,2.0746,2.0745,2.0802,2.0806,2.0809,2.0852,0,0,2.0819,2.0821,0,0,0,0,0,0,0,0,2.0624,2.0631,2.0694,2.0695,2.0697,2.0739,2.0728,2.0783,2.0749,2.0729,2.0746,2.0745,2.0783,2.0788,2.0801,2.0855,2.0857,2.0819,2.0821,2.0823,2.0824,0,0,0,0,0,0,0,2.062,2.0628,2.071,2.0695,2.0697,2.0697,2.0703,2.0739,2.0761,2.0731,2.0731,2.0738,2.0784,2.0798,2.0803,2.0858,2.0819,2.0822,2.0824,2.0826,2.0952,2.0953,0,0,0,0,0,0,2.0615,2.0625,2.0708,2.0712,2.0657,2.0699,2.0707,2.0726,2.0761,2.0765,2.0739,2.0738,2.0793,2.0799,2.0805,2.0859,2.0823,2.0826,2.0828,2.095,2.0952,2.0954,0,0,0,0,0,0,2.0612,2.0622,2.0706,2.0669,2.0679,2.0703,2.0725,2.0728,2.0743,2.0767,2.0771,2.075,2.0792,2.08,2.0841,2.0861,2.0828,2.0831,2.0949,2.0951,2.0953,2.0966,0,0,0,0,0,0,2.0609,2.0621,2.0638,2.0669,2.0682,2.0742,2.0726,2.073,2.0749,2.0748,2.0778,2.0782,2.0792,2.0836,2.0844,2.0865,2.0833,2.0947,2.095,2.0952,2.0964,2.0968,2.0972,0,0,0,0,0,2.0605,2.0638,2.0639,2.0649,2.0703,2.0743,2.075,2.0761,2.075,2.0767,2.0784,2.0781,2.0857,2.084,2.0849,2.0871,2.0946,2.0949,2.0952,2.0962,2.0967,2.0972,0,0,0,0,0,0,2.0607,2.0642,2.0643,2.0688,2.0713,2.0743,2.0764,2.0766,2.0793,2.0791,2.0803,2.081,2.0851,2.0865,2.0845,2.0916,2.09,2.0905,2.0905,2.091,2.0914,2.091,2.0836,0,0,0,0,0,2.0613,2.0643,2.0672,2.0708,2.0721,2.0741,2.0758,2.0765,2.0791,2.0801,2.082,2.0844,2.0874,2.0893,2.0921,2.0966,2.0973,2.0986,2.099,2.0993,2.0997,2.1024,2.103,2.0963,2.0963,2.0963,0,0,2.0625,2.0648,2.0666,2.0709,2.0729,2.076,2.0749,2.0781,2.0804,2.0805,2.0846,2.0861,2.0889,2.0933,2.0953,2.0946,2.1018,2.0997,2.1,2.1002,2.1028,2.1034,2.104,2.0965,2.0965,2.0965,0,0,2.0662,2.0682,2.0716,2.0737,2.0768,2.0781,2.0789,2.082,2.083,2.0872,2.0874,2.0901,2.0951,2.0971,2.0988,2.1037,2.1036,2.1046,2.1066,2.1092,2.1097,2.1102,2.112,2.1126,2.105,2.105,2.105,0,2.0673,2.0719,2.0732,2.0766,2.0785,2.079,2.0824,2.0843,2.0881,2.0895,2.0887,2.0951,2.097,2.102,2.1032,2.1045,2.1055,2.1042,2.1096,2.11,2.1105,2.1122,2.1129,2.1051,2.105,2.105,2.105,0,2.0731,2.0764,2.0787,2.0826,2.0848,2.0882,2.09,2.0921,2.0927,2.0941,2.0983,2.1007,2.1041,2.1053,2.1058,2.1104,2.1099,2.1093,2.1078,2.1112,2.1129,2.1135,2.1052,2.1052,2.1051,2.1051,0,0,2.077,2.0817,2.0826,2.0844,2.088,2.0905,2.0939,2.0974,2.0992,2.1019,2.1048,2.1092,2.1088,2.1107,2.1115,2.1137,2.1176,2.1129,2.113,2.1137,2.1229,2.1233,2.124,2.1176,2.1177,2.1178,2.1227,0,2.0811,2.0873,2.0887,2.094,2.0971,2.0977,2.1007,2.1032,2.1047,2.1075,2.1091,2.1122,2.1114,2.1126,2.1149,2.1166,2.1194,2.1163,2.1203,2.1204,2.1196,2.1249,2.1253,2.1297,2.1233,2.1234,2.1235,0,2.0868,2.0898,2.0954,2.0988,2.1002,2.1028,2.1062,2.1089,2.1118,2.1128,2.1151,2.1157,2.1193,2.1177,2.1227,2.1206,2.1223,2.1234,2.1236,2.124,2.1221,2.1254,2.1312,2.1319,2.1245,2.1244,2.1244,0,2.0891,2.0946,2.0987,2.1002,2.1042,2.1061,2.1079,2.1107,2.1128,2.1158,2.1171,2.1204,2.1222,2.1248,2.1263,2.1249,2.1313,2.1297,2.1321,2.1321,2.1334,2.1333,2.1395,2.1345,2.1345,2.1345,2.1345,0,2.0936,2.097,2.0998,2.1024,2.1063,2.1079,2.1117,2.1135,2.116,2.1189,2.1196,2.1223,2.1241,2.1271,2.1283,2.1323,2.1331,2.134,2.1342,2.1339,2.1338,2.135,2.1348,2.1347,2.1346,2.1346,2.1346,0,2.0968,2.0988,2.1034,2.1069,2.1079,2.1106,2.1136,2.1161,2.1177,2.1214,2.1223,2.1248,2.1284,2.1302,2.1345,2.1353,2.1399,2.14,2.139,2.1391,2.1414,2.1412,2.1487,2.1498,2.144,2.1441,2.1441,0,2.0995,2.1022,2.1061,2.1082,2.11,2.1133,2.1155,2.1172,2.1195,2.1231,2.1252,2.1289,2.1318,2.1375,2.1397,2.1431,2.1432,2.1456,2.1437,2.1434,2.1433,2.1432,2.1435,2.1459,2.146,2.146,2.1461,0,2.1042,2.1051,2.1083,2.1119,2.1145,2.1174,2.1202,2.1218,2.1241,2.1266,2.1303,2.1326,2.1372,2.1408,2.1445,2.1462,2.1465,2.1467,2.1474,2.1471,2.1464,2.1469,2.1399,2.1465,2.1464,2.1464,2.1464,2.1463,2.1072,2.1097,2.1129,2.1165,2.1189,2.1216,2.1242,2.1262,2.1294,2.1333,2.1342,2.1381,2.1412,2.1461,2.148,2.1511,2.1506,2.1517,2.1519,2.1522,2.1523,2.146,2.1518,2.1518,2.1518,2.1518,2.1518,0,2.112,2.1141,2.1174,2.1215,2.1243,2.1245,2.1277,2.1301,2.1336,2.1364,2.1395,2.1438,2.1474,2.15,2.1536,2.1556,2.1559,2.1565,2.1564,2.1568,2.1526,2.1516,2.1563,2.1563,2.1563,2.1563,2.1563,2.1563,2.1148,2.1191,2.1204,2.1259,2.128,2.132,2.1339,2.1364,2.1387,2.1436,2.1466,2.1483,2.1511,2.155,2.1583,2.159,2.1603,2.161,2.1616,2.1576,2.1571,2.1566,2.1557,2.1612,2.1613,2.1657,2.1657,2.1657]},{"header":{"parameterUnit":"m.s-1","parameterCategory":1,"la1":30.2991,"la2":30.254,"lo1":-89.0895,"lo2":-89.0444,"dy":0.0017,"dx":0.0017,"nx":28,"ny":28,"refTime":"2024-03-22T09:00:00:Z","depth":0,"parameterNumber":3,"parameterNumberName":"V-component_of_WINDS"},"data":[0,0,0,0,0,0,0,0,0,0,0,0,0,0,0,0,0,0,0,0,0,0,0,0,0,0,0,0,0,0,0,0,0,0,0,0,0,0,0,0,0,0,0,0,0,0,0,0,0,0,0,0,0,0,0,0,0,0,-7.1487,-7.1488,0,-7.1562,-7.1563,-7.1564,-7.149,-7.1487,-7.1484,-7.1482,-7.1553,-7.1557,-7.1562,0,0,0,0,0,0,0,0,0,0,0,0,0,-7.1276,-7.128,-7.1487,-7.1488,-7.1489,-7.1562,-7.1563,-7.1564,-7.1491,-7.1487,-7.1484,-7.148,-7.1551,-7.1556,-7.1562,0,0,0,0,0,0,0,0,0,0,0,0,0,-7.1361,-7.1282,-7.1487,-7.1461,-7.146,-7.1562,-7.1563,-7.1564,-7.1491,-7.1487,-7.1483,-7.1479,-7.1549,-7.1556,-7.1563,-7.1692,0,0,-7.1584,-7.1587,0,0,0,0,0,0,0,0,-7.1356,-7.1369,-7.1464,-7.1463,-7.1462,-7.1512,-7.1515,-7.1607,-7.1492,-7.1479,-7.1481,-7.1476,-7.1542,-7.155,-7.1573,-7.1695,-7.1698,-7.1584,-7.1589,-7.1592,-7.1593,0,0,0,0,0,0,0,-7.135,-7.1365,-7.1517,-7.1466,-7.1464,-7.1445,-7.1452,-7.1532,-7.1534,-7.148,-7.1475,-7.1485,-7.1541,-7.1567,-7.1574,-7.17,-7.1584,-7.159,-7.1595,-7.1597,-7.1933,-7.1938,0,0,0,0,0,0,-7.1348,-7.1361,-7.1514,-7.1519,-7.1397,-7.1452,-7.146,-7.15,-7.1533,-7.1534,-7.1489,-7.1481,-7.1557,-7.1566,-7.1576,-7.1731,-7.1591,-7.1598,-7.1602,-7.1928,-7.1934,-7.1939,0,0,0,0,0,0,-7.1344,-7.1363,-7.1511,-7.1439,-7.1456,-7.146,-7.1506,-7.1504,-7.153,-7.154,-7.1539,-7.1515,-7.1554,-7.1567,-7.1665,-7.1732,-7.1601,-7.1607,-7.1923,-7.193,-7.1937,-7.2041,0,0,0,0,0,0,-7.1338,-7.1361,-7.1412,-7.144,-7.146,-7.16,-7.151,-7.1509,-7.1543,-7.1534,-7.1564,-7.1565,-7.1551,-7.1655,-7.1671,-7.1739,-7.1613,-7.1916,-7.1926,-7.1934,-7.2031,-7.205,-7.2067,0,0,0,0,0,-7.1331,-7.1436,-7.1415,-7.1433,-7.1523,-7.1604,-7.1615,-7.1599,-7.1548,-7.1598,-7.1605,-7.1564,-7.1722,-7.1665,-7.1684,-7.1755,-7.1912,-7.1923,-7.1934,-7.2023,-7.2047,-7.2067,0,0,0,0,0,0,-7.1413,-7.144,-7.1416,-7.1534,-7.1568,-7.1592,-7.1654,-7.1624,-7.1672,-7.1661,-7.1638,-7.1645,-7.1749,-7.1761,-7.1698,-7.1882,-7.1809,-7.1824,-7.187,-7.1893,-7.1911,-7.1905,-7.1618,0,0,0,0,0,-7.1445,-7.151,-7.1529,-7.1632,-7.165,-7.165,-7.1684,-7.1669,-7.1702,-7.1715,-7.1729,-7.1761,-7.1818,-7.1856,-7.1909,-7.2033,-7.2038,-7.209,-7.2108,-7.2123,-7.2136,-7.2203,-7.2227,-7.1975,-7.1974,-7.1974,0,0,-7.1512,-7.1534,-7.1576,-7.1649,-7.1673,-7.174,-7.1662,-7.1735,-7.1784,-7.1726,-7.182,-7.1831,-7.1865,-7.1978,-7.2027,-7.1991,-7.2207,-7.2137,-7.2148,-7.2154,-7.2217,-7.2241,-7.2262,-7.1982,-7.1981,-7.1979,0,0,-7.1667,-7.1691,-7.178,-7.1807,-7.1845,-7.1845,-7.1866,-7.1895,-7.1901,-7.1996,-7.1954,-7.2011,-7.2109,-7.2136,-7.2163,-7.2331,-7.2295,-7.2348,-7.2442,-7.2508,-7.2528,-7.2545,-7.2606,-7.2628,-7.2361,-7.2362,-7.2362,0,-7.1744,-7.1845,-7.1828,-7.1906,-7.1939,-7.1892,-7.1981,-7.2007,-7.2061,-7.2084,-7.2043,-7.2167,-7.2187,-7.2305,-7.2346,-7.2369,-7.2392,-7.2345,-7.2527,-7.2544,-7.256,-7.2617,-7.264,-7.2368,-7.2367,-7.2367,-7.2366,0,-7.1939,-7.2009,-7.2076,-7.2132,-7.2172,-7.2255,-7.225,-7.2293,-7.2275,-7.2278,-7.2375,-7.2398,-7.2455,-7.2482,-7.2463,-7.2598,-7.2574,-7.253,-7.2456,-7.2591,-7.2644,-7.2666,-7.2377,-7.2375,-7.2373,-7.2371,0,0,-7.2147,-7.2194,-7.2219,-7.2245,-7.2285,-7.2338,-7.2419,-7.2477,-7.2515,-7.2553,-7.262,-7.2706,-7.2666,-7.2696,-7.2681,-7.2739,-7.2872,-7.2688,-7.2688,-7.2722,-7.3022,-7.3055,-7.3081,-7.2848,-7.2852,-7.2856,-7.3019,0,-7.2304,-7.2447,-7.2435,-7.257,-7.2635,-7.2592,-7.2662,-7.2694,-7.2699,-7.2754,-7.2759,-7.2821,-7.2763,-7.2782,-7.2837,-7.2844,-7.2932,-7.2832,-7.291,-7.2913,-7.2903,-7.3109,-7.3144,-7.3297,-7.304,-7.3043,-7.3046,0,-7.2507,-7.2556,-7.2698,-7.273,-7.2757,-7.2821,-7.2874,-7.2927,-7.2962,-7.2962,-7.2998,-7.2973,-7.3053,-7.2978,-7.3088,-7.302,-7.3051,-7.306,-7.3065,-7.3072,-7.2988,-7.3121,-7.3345,-7.3368,-7.3079,-7.3076,-7.3074,0,-7.2646,-7.2747,-7.2845,-7.2868,-7.2908,-7.2954,-7.2972,-7.3003,-7.304,-7.3085,-7.3109,-7.3163,-7.3192,-7.3234,-7.3224,-7.317,-7.3337,-7.326,-7.3339,-7.3339,-7.3376,-7.3374,-7.3608,-7.3396,-7.3395,-7.3395,-7.3394,0,-7.2823,-7.2911,-7.2908,-7.2969,-7.3067,-7.3052,-7.3149,-7.3161,-7.319,-7.3251,-7.3216,-7.3274,-7.3257,-7.3314,-7.3307,-7.34,-7.3413,-7.3414,-7.3411,-7.3418,-7.3418,-7.3438,-7.3427,-7.3401,-7.3399,-7.3398,-7.3397,0,-7.2994,-7.2996,-7.31,-7.3131,-7.314,-7.3211,-7.3236,-7.3293,-7.3296,-7.3375,-7.3392,-7.3397,-7.3462,-7.3457,-7.3529,-7.3524,-7.364,-7.3624,-7.3629,-7.3626,-7.3705,-7.3698,-7.396,-7.3994,-7.3759,-7.3761,-7.3763,0,-7.3107,-7.3175,-7.3214,-7.3254,-7.3276,-7.334,-7.3378,-7.3366,-7.3407,-7.3453,-7.3504,-7.3567,-7.3617,-7.3723,-7.3732,-7.3788,-7.3773,-7.3861,-7.3781,-7.3786,-7.3775,-7.3772,-7.3778,-7.3877,-7.388,-7.3882,-7.3884,0,-7.3309,-7.3307,-7.3364,-7.3423,-7.347,-7.3514,-7.3555,-7.3589,-7.3581,-7.3628,-7.3696,-7.3735,-7.3811,-7.3873,-7.3927,-7.3943,-7.3913,-7.3909,-7.393,-7.3938,-7.3938,-7.394,-7.3673,-7.3903,-7.3901,-7.39,-7.3898,-7.3898,-7.3455,-7.3514,-7.3551,-7.3616,-7.3646,-7.3686,-7.3741,-7.3753,-7.381,-7.3873,-7.3861,-7.3938,-7.3972,-7.4041,-7.4063,-7.4122,-7.409,-7.412,-7.4128,-7.4136,-7.4146,-7.3929,-7.4131,-7.4131,-7.413,-7.413,-7.4129,0,-7.3655,-7.3677,-7.3738,-7.3798,-7.3849,-7.3818,-7.3861,-7.3906,-7.3975,-7.401,-7.4061,-7.4139,-7.42,-7.4215,-7.4273,-7.4318,-7.4305,-7.4333,-7.433,-7.4335,-7.417,-7.4147,-7.4343,-7.4343,-7.4343,-7.4343,-7.4343,-7.4343,-7.3765,-7.3864,-7.3867,-7.398,-7.4,-7.4077,-7.4105,-7.4141,-7.417,-7.426,-7.4312,-7.4322,-7.4349,-7.4409,-7.4464,-7.4466,-7.449,-7.4524,-7.4521,-7.4367,-7.4346,-7.4326,-7.4303,-7.4529,-7.453,-7.4681,-7.4682,-7.4683]}]]